Time,TemperatureF,DewpointF,PressureIn,WindDirection,WindDirectionDegrees,WindSpeedMPH,WindSpeedGustMPH,Humidity,HourlyPrecipIn,Conditions,Clouds,dailyrainin,SoftwareType,DateUTC
2013-05-04 00:01:00,65.3,39.0,30.03,ESE,112,0.0,0.0,38,0.00,,,0.00,Wunderground v.1.13,2013-05-04 04:01:00,
2013-05-04 00:02:00,65.2,38.9,30.03,ESE,112,2.0,2.0,38,0.00,,,0.00,Wunderground v.1.13,2013-05-04 04:02:00,
2013-05-04 00:04:00,65.3,39.7,30.03,SE,142,0.0,2.0,39,0.00,,,0.00,Wunderground v.1.13,2013-05-04 04:04:00,
2013-05-04 00:05:00,65.2,38.9,30.03,SE,142,0.0,2.0,38,0.00,,,0.00,Wunderground v.1.13,2013-05-04 04:05:00,
2013-05-04 00:08:00,65.2,39.6,30.03,SW,230,2.0,2.0,39,0.00,,,0.00,Wunderground v.1.13,2013-05-04 04:08:00,
2013-05-04 00:14:00,64.8,39.9,30.03,SSE,161,3.0,3.0,40,0.00,,,0.00,Wunderground v.1.13,2013-05-04 04:14:00,
2013-05-04 00:19:00,64.7,39.2,30.03,ESE,105,2.0,3.0,39,0.00,,,0.00,Wunderground v.1.13,2013-05-04 04:19:00,
2013-05-04 00:25:00,64.3,40.7,30.03,SE,142,1.0,2.0,42,0.00,,,0.00,Wunderground v.1.13,2013-05-04 04:25:00,
2013-05-04 00:31:00,64.2,40.0,30.03,ESE,108,0.0,1.0,41,0.00,,,0.00,Wunderground v.1.13,2013-05-04 04:31:00,
2013-05-04 00:36:00,64.0,41.0,30.03,ESE,120,1.0,1.0,43,0.00,,,0.00,Wunderground v.1.13,2013-05-04 04:36:00,
2013-05-04 00:42:00,63.5,41.2,30.04,SE,145,0.0,1.0,44,0.00,,,0.00,Wunderground v.1.13,2013-05-04 04:42:00,
2013-05-04 00:48:00,63.4,41.1,30.04,SE,145,3.0,3.0,44,0.00,,,0.00,Wunderground v.1.13,2013-05-04 04:48:00,
2013-05-04 00:53:00,63.2,40.9,30.04,SE,145,0.0,0.0,44,0.00,,,0.00,Wunderground v.1.13,2013-05-04 04:53:00,
2013-05-04 00:59:00,63.1,41.4,30.04,ESE,116,3.0,3.0,45,0.00,,,0.00,Wunderground v.1.13,2013-05-04 04:59:00,
2013-05-04 01:04:00,62.9,41.2,30.04,ESE,118,0.0,3.0,45,0.00,,,0.00,Wunderground v.1.13,2013-05-04 05:04:00,
2013-05-04 01:10:00,62.7,41.6,30.04,ESE,118,3.0,3.0,46,0.00,,,0.00,Wunderground v.1.13,2013-05-04 05:10:00,
2013-05-04 01:15:00,62.4,41.9,30.04,SE,144,0.0,0.0,47,0.00,,,0.00,Wunderground v.1.13,2013-05-04 05:15:00,
2013-05-04 01:21:00,62.3,41.8,30.04,SE,126,1.0,1.0,47,0.00,,,0.00,Wunderground v.1.13,2013-05-04 05:21:00,
2013-05-04 01:27:00,62.1,41.6,30.04,SE,126,2.0,2.0,47,0.00,,,0.00,Wunderground v.1.13,2013-05-04 05:27:00,
2013-05-04 01:32:00,62.0,42.1,30.04,SE,138,0.0,1.0,48,0.00,,,0.00,Wunderground v.1.13,2013-05-04 05:32:00,
2013-05-04 01:38:00,61.6,42.2,30.04,SE,138,1.0,1.0,49,0.00,,,0.00,Wunderground v.1.13,2013-05-04 05:38:00,
2013-05-04 01:43:00,61.6,42.2,30.04,ESE,113,1.0,1.0,49,0.00,,,0.00,Wunderground v.1.13,2013-05-04 05:43:00,
2013-05-04 01:49:00,61.8,42.4,30.04,ESE,116,1.0,1.0,49,0.00,,,0.00,Wunderground v.1.13,2013-05-04 05:49:00,
2013-05-04 01:55:00,61.5,42.2,30.04,ESE,116,2.0,2.0,49,0.00,,,0.00,Wunderground v.1.13,2013-05-04 05:55:00,
2013-05-04 02:01:00,61.3,42.0,30.04,ESE,116,1.0,1.0,49,0.00,,,0.00,Wunderground v.1.13,2013-05-04 06:01:00,
2013-05-04 02:06:00,61.2,42.4,30.04,ESE,117,0.0,1.0,50,0.00,,,0.00,Wunderground v.1.13,2013-05-04 06:06:00,
2013-05-04 02:11:00,61.0,42.7,30.04,ESE,117,1.0,1.0,51,0.00,,,0.00,Wunderground v.1.13,2013-05-04 06:11:00,
2013-05-04 02:16:00,60.7,42.5,30.04,ESE,117,2.0,2.0,51,0.00,,,0.00,Wunderground v.1.13,2013-05-04 06:16:00,
2013-05-04 02:21:00,60.5,42.8,30.04,ESE,117,1.0,1.0,52,0.00,,,0.00,Wunderground v.1.13,2013-05-04 06:21:00,
2013-05-04 02:26:00,60.2,42.5,30.04,ESE,117,1.0,3.0,52,0.00,,,0.00,Wunderground v.1.13,2013-05-04 06:26:00,
2013-05-04 02:31:00,60.1,42.4,30.04,ESE,117,1.0,2.0,52,0.00,,,0.00,Wunderground v.1.13,2013-05-04 06:31:00,
2013-05-04 02:36:00,59.9,42.7,30.04,ESE,117,1.0,2.0,53,0.00,,,0.00,Wunderground v.1.13,2013-05-04 06:36:00,
2013-05-04 02:41:00,59.9,42.7,30.04,ESE,117,1.0,2.0,53,0.00,,,0.00,Wunderground v.1.13,2013-05-04 06:41:00,
2013-05-04 02:46:00,59.9,42.7,30.04,SE,129,1.0,2.0,53,0.00,,,0.00,Wunderground v.1.13,2013-05-04 06:46:00,
2013-05-04 02:51:00,59.6,42.9,30.04,SE,129,1.0,2.0,54,0.00,,,0.00,Wunderground v.1.13,2013-05-04 06:51:00,
2013-05-04 02:56:00,59.6,42.9,30.04,ESE,115,3.0,3.0,54,0.00,,,0.00,Wunderground v.1.13,2013-05-04 06:56:00,
2013-05-04 03:01:00,59.5,42.8,30.04,ESE,120,3.0,6.0,54,0.00,,,0.00,Wunderground v.1.13,2013-05-04 07:01:00,
2013-05-04 03:06:00,59.5,43.3,30.04,ESE,117,3.0,5.0,55,0.00,,,0.00,Wunderground v.1.13,2013-05-04 07:06:00,
2013-05-04 03:11:00,59.5,43.8,30.04,ESE,110,4.0,4.0,56,0.00,,,0.00,Wunderground v.1.13,2013-05-04 07:11:00,
2013-05-04 03:16:00,59.2,44.9,30.04,ESE,105,1.0,4.0,59,0.00,,,0.00,Wunderground v.1.13,2013-05-04 07:16:00,
2013-05-04 03:21:00,59.0,44.7,30.04,ESE,111,3.0,5.0,59,0.00,,,0.00,Wunderground v.1.13,2013-05-04 07:21:00,
2013-05-04 03:26:00,59.0,44.2,30.04,ESE,116,5.0,6.0,58,0.00,,,0.00,Wunderground v.1.13,2013-05-04 07:26:00,
2013-05-04 03:31:00,58.9,44.1,30.04,ESE,122,3.0,5.0,58,0.00,,,0.00,Wunderground v.1.13,2013-05-04 07:31:00,
2013-05-04 03:36:00,58.6,43.9,30.04,ESE,108,4.0,4.0,58,0.00,,,0.00,Wunderground v.1.13,2013-05-04 07:36:00,
2013-05-04 03:41:00,58.3,44.5,30.04,ESE,111,3.0,4.0,60,0.00,,,0.00,Wunderground v.1.13,2013-05-04 07:41:00,
2013-05-04 03:46:00,58.4,44.6,30.04,ESE,113,3.0,4.0,60,0.00,,,0.00,Wunderground v.1.13,2013-05-04 07:46:00,
2013-05-04 03:52:00,58.4,44.6,30.04,ESE,102,3.0,5.0,60,0.00,,,0.00,Wunderground v.1.13,2013-05-04 07:52:00,
2013-05-04 03:57:00,58.4,45.0,30.04,ESE,109,1.0,4.0,61,0.00,,,0.00,Wunderground v.1.13,2013-05-04 07:57:00,
2013-05-04 04:02:00,58.1,45.1,30.04,ESE,118,1.0,4.0,62,0.00,,,0.00,Wunderground v.1.13,2013-05-04 08:02:00,
2013-05-04 04:07:00,58.0,45.0,30.04,ESE,112,5.0,5.0,62,0.00,,,0.00,Wunderground v.1.13,2013-05-04 08:07:00,
2013-05-04 04:12:00,57.8,44.9,30.04,SE,125,6.0,6.0,62,0.00,,,0.00,Wunderground v.1.13,2013-05-04 08:12:00,
2013-05-04 04:17:00,57.5,44.6,30.04,ESE,118,5.0,6.0,62,0.00,,,0.00,Wunderground v.1.13,2013-05-04 08:17:00,
2013-05-04 04:22:00,57.3,44.0,30.04,ESE,120,3.0,6.0,61,0.00,,,0.00,Wunderground v.1.13,2013-05-04 08:22:00,
2013-05-04 04:27:00,56.9,43.2,30.04,ESE,121,3.0,4.0,60,0.00,,,0.00,Wunderground v.1.13,2013-05-04 08:27:00,
2013-05-04 04:32:00,56.5,43.6,30.04,ESE,112,3.0,4.0,62,0.00,,,0.00,Wunderground v.1.13,2013-05-04 08:32:00,
2013-05-04 04:37:00,56.5,43.2,30.04,ESE,122,4.0,5.0,61,0.00,,,0.00,Wunderground v.1.13,2013-05-04 08:37:00,
2013-05-04 04:42:00,56.5,43.2,30.04,ESE,113,3.0,4.0,61,0.00,,,0.00,Wunderground v.1.13,2013-05-04 08:42:00,
2013-05-04 04:47:00,56.5,42.8,30.04,ESE,119,3.0,5.0,60,0.00,,,0.00,Wunderground v.1.13,2013-05-04 08:47:00,
2013-05-04 04:52:00,56.5,43.2,30.04,ESE,119,1.0,4.0,61,0.00,,,0.00,Wunderground v.1.13,2013-05-04 08:52:00,
2013-05-04 04:57:00,56.3,43.0,30.04,ESE,115,4.0,5.0,61,0.00,,,0.00,Wunderground v.1.13,2013-05-04 08:57:00,
2013-05-04 05:02:00,56.3,43.0,30.04,ESE,115,3.0,5.0,61,0.00,,,0.00,Wunderground v.1.13,2013-05-04 09:02:00,
2013-05-04 05:07:00,56.3,43.0,30.04,ESE,113,3.0,4.0,61,0.00,,,0.00,Wunderground v.1.13,2013-05-04 09:07:00,
2013-05-04 05:12:00,56.3,43.4,30.04,ESE,107,4.0,5.0,62,0.00,,,0.00,Wunderground v.1.13,2013-05-04 09:12:00,
2013-05-04 05:17:00,56.2,43.3,30.04,ESE,118,4.0,6.0,62,0.00,,,0.00,Wunderground v.1.13,2013-05-04 09:17:00,
2013-05-04 05:22:00,56.0,43.2,30.04,ESE,113,4.0,6.0,62,0.00,,,0.00,Wunderground v.1.13,2013-05-04 09:22:00,
2013-05-04 05:27:00,55.9,43.1,30.04,ESE,123,5.0,6.0,62,0.00,,,0.00,Wunderground v.1.13,2013-05-04 09:27:00,
2013-05-04 05:32:00,55.9,43.1,30.04,ESE,108,4.0,7.0,62,0.00,,,0.00,Wunderground v.1.13,2013-05-04 09:32:00,
2013-05-04 05:37:00,55.7,43.3,30.04,ESE,121,3.0,5.0,63,0.00,,,0.00,Wunderground v.1.13,2013-05-04 09:37:00,
2013-05-04 05:42:00,55.6,43.2,30.04,ESE,109,4.0,5.0,63,0.00,,,0.00,Wunderground v.1.13,2013-05-04 09:42:00,
2013-05-04 05:47:00,55.7,42.9,30.04,ESE,112,4.0,8.0,62,0.00,,,0.00,Wunderground v.1.13,2013-05-04 09:47:00,
2013-05-04 05:52:00,55.7,42.9,30.04,ESE,108,4.0,6.0,62,0.00,,,0.00,Wunderground v.1.13,2013-05-04 09:52:00,
2013-05-04 05:58:00,55.7,42.9,30.04,ESE,109,5.0,7.0,62,0.00,,,0.00,Wunderground v.1.13,2013-05-04 09:58:00,
2013-05-04 06:03:00,55.9,42.6,30.04,ESE,115,5.0,7.0,61,0.00,,,0.00,Wunderground v.1.13,2013-05-04 10:03:00,
2013-05-04 06:08:00,55.7,42.5,30.04,ESE,115,4.0,6.0,61,0.00,,,0.00,Wunderground v.1.13,2013-05-04 10:08:00,
2013-05-04 06:13:00,55.7,42.0,30.04,ESE,123,5.0,7.0,60,0.00,,,0.00,Wunderground v.1.13,2013-05-04 10:13:00,
2013-05-04 06:18:00,55.7,42.0,30.04,East,100,5.0,7.0,60,0.00,,,0.00,Wunderground v.1.13,2013-05-04 10:18:00,
2013-05-04 06:23:00,55.9,42.2,30.04,ESE,121,5.0,6.0,60,0.00,,,0.00,Wunderground v.1.13,2013-05-04 10:23:00,
2013-05-04 06:28:00,55.9,41.8,30.04,ESE,121,5.0,7.0,59,0.00,,,0.00,Wunderground v.1.13,2013-05-04 10:28:00,
2013-05-04 06:33:00,55.9,41.3,30.04,ESE,121,5.0,7.0,58,0.00,,,0.00,Wunderground v.1.13,2013-05-04 10:33:00,
2013-05-04 06:38:00,55.7,41.1,30.04,ESE,121,7.0,9.0,58,0.00,,,0.00,Wunderground v.1.13,2013-05-04 10:38:00,
2013-05-04 06:43:00,55.9,41.3,30.04,ESE,118,5.0,7.0,58,0.00,,,0.00,Wunderground v.1.13,2013-05-04 10:43:00,
2013-05-04 06:48:00,55.7,41.6,30.04,ESE,123,7.0,11.0,59,0.00,,,0.00,Wunderground v.1.13,2013-05-04 10:48:00,
2013-05-04 06:53:00,55.7,41.6,30.04,ESE,106,6.0,7.0,59,0.00,,,0.00,Wunderground v.1.13,2013-05-04 10:53:00,
2013-05-04 06:58:00,55.7,42.0,30.04,ESE,117,5.0,9.0,60,0.00,,,0.00,Wunderground v.1.13,2013-05-04 10:58:00,
2013-05-04 07:03:00,55.6,41.9,30.04,ESE,109,4.0,12.0,60,0.00,,,0.00,Wunderground v.1.13,2013-05-04 11:03:00,
2013-05-04 07:08:00,55.6,41.5,30.04,ESE,113,6.0,11.0,59,0.00,,,0.00,Wunderground v.1.13,2013-05-04 11:08:00,
2013-05-04 07:13:00,55.4,41.3,30.05,ESE,123,5.0,10.0,59,0.00,,,0.00,Wunderground v.1.13,2013-05-04 11:13:00,
2013-05-04 07:18:00,55.4,41.3,30.05,East,91,5.0,11.0,59,0.00,,,0.00,Wunderground v.1.13,2013-05-04 11:18:00,
2013-05-04 07:23:00,55.4,41.3,30.05,ESE,103,5.0,13.0,59,0.00,,,0.00,Wunderground v.1.13,2013-05-04 11:23:00,
2013-05-04 07:28:00,55.6,41.5,30.04,East,101,7.0,13.0,59,0.00,,,0.00,Wunderground v.1.13,2013-05-04 11:28:00,
2013-05-04 07:33:00,55.6,41.5,30.04,ESE,121,7.0,12.0,59,0.00,,,0.00,Wunderground v.1.13,2013-05-04 11:33:00,
2013-05-04 07:38:00,55.4,42.2,30.04,ESE,123,9.0,11.0,61,0.00,,,0.00,Wunderground v.1.13,2013-05-04 11:38:00,
2013-05-04 07:43:00,55.4,41.7,30.05,SE,127,7.0,12.0,60,0.00,,,0.00,Wunderground v.1.13,2013-05-04 11:43:00,
2013-05-04 07:48:00,55.3,42.1,30.05,ESE,120,9.0,13.0,61,0.00,,,0.00,Wunderground v.1.13,2013-05-04 11:48:00,
2013-05-04 07:53:00,55.3,42.1,30.05,ESE,123,7.0,11.0,61,0.00,,,0.00,Wunderground v.1.13,2013-05-04 11:53:00,
2013-05-04 07:58:00,55.3,42.5,30.05,ESE,112,6.0,13.0,62,0.00,,,0.00,Wunderground v.1.13,2013-05-04 11:58:00,
2013-05-04 08:03:00,55.3,42.9,30.05,SE,124,8.0,9.0,63,0.00,,,0.00,Wunderground v.1.13,2013-05-04 12:03:00,
2013-05-04 08:09:00,55.1,42.7,30.05,ESE,122,7.0,11.0,63,0.00,,,0.00,Wunderground v.1.13,2013-05-04 12:09:00,
2013-05-04 08:14:00,55.3,42.1,30.05,ESE,113,7.0,11.0,61,0.00,,,0.00,Wunderground v.1.13,2013-05-04 12:14:00,
2013-05-04 08:19:00,55.3,42.5,30.05,ENE,67,4.0,10.0,62,0.00,,,0.00,Wunderground v.1.13,2013-05-04 12:19:00,
2013-05-04 08:24:00,55.6,42.4,30.05,ESE,115,10.0,11.0,61,0.00,,,0.00,Wunderground v.1.13,2013-05-04 12:24:00,
2013-05-04 08:29:00,55.6,41.9,30.05,ESE,121,6.0,14.0,60,0.00,,,0.00,Wunderground v.1.13,2013-05-04 12:29:00,
2013-05-04 08:34:00,56.0,41.9,30.05,ESE,109,14.0,16.0,59,0.00,,,0.00,Wunderground v.1.13,2013-05-04 12:34:00,
2013-05-04 08:39:00,56.2,42.5,30.05,ESE,105,6.0,12.0,60,0.00,,,0.00,Wunderground v.1.13,2013-05-04 12:39:00,
2013-05-04 08:44:00,56.5,41.9,30.05,ESE,107,9.0,14.0,58,0.00,,,0.00,Wunderground v.1.13,2013-05-04 12:44:00,
2013-05-04 08:49:00,56.6,41.5,30.05,ESE,118,10.0,14.0,57,0.00,,,0.00,Wunderground v.1.13,2013-05-04 12:49:00,
2013-05-04 08:54:00,56.7,41.6,30.05,SE,127,9.0,16.0,57,0.00,,,0.00,Wunderground v.1.13,2013-05-04 12:54:00,
2013-05-04 08:59:00,57.2,41.6,30.05,ESE,111,9.0,14.0,56,0.00,,,0.00,Wunderground v.1.13,2013-05-04 12:59:00,
2013-05-04 09:04:00,57.2,40.2,30.05,SE,128,10.0,15.0,53,0.00,,,0.00,Wunderground v.1.13,2013-05-04 13:04:00,
2013-05-04 09:06:00,57.2,40.2,30.05,ESE,111,8.0,9.0,53,0.00,,,0.00,Wunderground v.1.13,2013-05-04 13:06:00,
2013-05-04 09:11:00,57.2,39.7,30.05,ESE,117,5.0,15.0,52,0.00,,,0.00,Wunderground v.1.13,2013-05-04 13:11:00,
2013-05-04 09:16:00,57.3,38.8,30.05,ESE,120,14.0,17.0,50,0.00,,,0.00,Wunderground v.1.13,2013-05-04 13:16:00,
2013-05-04 09:21:00,57.8,39.8,30.05,ESE,122,6.0,17.0,51,0.00,,,0.00,Wunderground v.1.13,2013-05-04 13:21:00,
2013-05-04 09:26:00,58.6,40.0,30.05,ESE,107,11.0,14.0,50,0.00,,,0.00,Wunderground v.1.13,2013-05-04 13:26:00,
2013-05-04 09:31:00,58.4,37.7,30.05,SE,126,11.0,16.0,46,0.00,,,0.00,Wunderground v.1.13,2013-05-04 13:31:00,
2013-05-04 09:36:00,58.9,38.7,30.05,SE,140,5.0,15.0,47,0.00,,,0.00,Wunderground v.1.13,2013-05-04 13:36:00,
2013-05-04 09:41:00,59.0,38.2,30.05,ESE,107,7.0,10.0,46,0.00,,,0.00,Wunderground v.1.13,2013-05-04 13:41:00,
2013-05-04 09:46:00,59.3,39.1,30.05,SSE,150,5.0,10.0,47,0.00,,,0.00,Wunderground v.1.13,2013-05-04 13:46:00,
2013-05-04 09:51:00,58.9,38.1,30.05,East,96,4.0,7.0,46,0.00,,,0.00,Wunderground v.1.13,2013-05-04 13:51:00,
2013-05-04 09:56:00,58.4,37.7,30.05,ESE,111,11.0,15.0,46,0.00,,,0.00,Wunderground v.1.13,2013-05-04 13:56:00,
2013-05-04 10:01:00,58.9,37.6,30.05,SE,134,3.0,12.0,45,0.00,,,0.00,Wunderground v.1.13,2013-05-04 14:01:00,
2013-05-04 10:06:00,59.9,40.1,30.05,SE,128,7.0,8.0,48,0.00,,,0.00,Wunderground v.1.13,2013-05-04 14:06:00,
2013-05-04 10:12:00,60.4,39.5,30.05,SE,132,9.0,9.0,46,0.00,,,0.00,Wunderground v.1.13,2013-05-04 14:12:00,
2013-05-04 10:17:00,60.4,39.5,30.05,SSW,197,1.0,8.0,46,0.00,,,0.00,Wunderground v.1.13,2013-05-04 14:17:00,
2013-05-04 10:22:00,60.1,39.2,30.05,SE,144,3.0,15.0,46,0.00,,,0.00,Wunderground v.1.13,2013-05-04 14:22:00,
2013-05-04 10:27:00,60.2,38.8,30.05,ESE,120,6.0,6.0,45,0.00,,,0.00,Wunderground v.1.13,2013-05-04 14:27:00,
2013-05-04 10:32:00,59.9,38.5,30.05,ESE,117,11.0,15.0,45,0.00,,,0.00,Wunderground v.1.13,2013-05-04 14:32:00,
2013-05-04 10:37:00,60.2,37.6,30.05,ESE,122,6.0,13.0,43,0.00,,,0.00,Wunderground v.1.13,2013-05-04 14:37:00,
2013-05-04 10:42:00,60.2,37.6,30.04,ESE,114,5.0,16.0,43,0.00,,,0.00,Wunderground v.1.13,2013-05-04 14:42:00,
2013-05-04 10:47:00,60.9,39.4,30.04,ESE,103,9.0,12.0,45,0.00,,,0.00,Wunderground v.1.13,2013-05-04 14:47:00,
2013-05-04 10:52:00,61.2,40.8,30.04,ESE,122,9.0,12.0,47,0.00,,,0.00,Wunderground v.1.13,2013-05-04 14:52:00,
2013-05-04 10:57:00,61.2,38.5,30.04,SE,136,7.0,14.0,43,0.00,,,0.00,Wunderground v.1.13,2013-05-04 14:57:00,
2013-05-04 11:02:00,61.5,38.8,30.04,ESE,109,2.0,7.0,43,0.00,,,0.00,Wunderground v.1.13,2013-05-04 15:02:00,
2013-05-04 11:07:00,61.8,39.1,30.04,SE,125,3.0,6.0,43,0.00,,,0.00,Wunderground v.1.13,2013-05-04 15:07:00,
2013-05-04 11:12:00,62.0,37.4,30.04,SSW,200,4.0,10.0,40,0.00,,,0.00,Wunderground v.1.13,2013-05-04 15:12:00,
2013-05-04 11:17:00,62.6,39.2,30.04,ESE,122,4.0,10.0,42,0.00,,,0.00,Wunderground v.1.13,2013-05-04 15:17:00,
2013-05-04 11:22:00,63.1,40.8,30.04,SSW,210,3.0,9.0,44,0.00,,,0.00,Wunderground v.1.13,2013-05-04 15:22:00,
2013-05-04 11:27:00,63.5,40.6,30.04,SSW,194,11.0,16.0,43,0.00,,,0.00,Wunderground v.1.13,2013-05-04 15:27:00,
2013-05-04 11:32:00,63.9,41.5,30.04,SE,146,3.0,12.0,44,0.00,,,0.00,Wunderground v.1.13,2013-05-04 15:32:00,
2013-05-04 11:37:00,63.5,42.9,30.04,SE,144,5.0,14.0,47,0.00,,,0.00,Wunderground v.1.13,2013-05-04 15:37:00,
2013-05-04 11:42:00,63.1,40.8,30.04,SE,127,2.0,15.0,44,0.00,,,0.00,Wunderground v.1.13,2013-05-04 15:42:00,
2013-05-04 11:47:00,63.1,42.5,30.04,ESE,109,4.0,12.0,47,0.00,,,0.00,Wunderground v.1.13,2013-05-04 15:47:00,
2013-05-04 11:52:00,63.1,42.5,30.04,ESE,123,5.0,9.0,47,0.00,,,0.00,Wunderground v.1.13,2013-05-04 15:52:00,
2013-05-04 11:57:00,64.3,44.2,30.04,SSE,157,6.0,9.0,48,0.00,,,0.00,Wunderground v.1.13,2013-05-04 15:57:00,
2013-05-04 12:02:00,64.7,43.4,30.04,SE,134,2.0,11.0,46,0.00,,,0.00,Wunderground v.1.13,2013-05-04 16:02:00,
2013-05-04 12:07:00,64.7,40.4,30.04,SW,220,7.0,9.0,41,0.00,,,0.00,Wunderground v.1.13,2013-05-04 16:07:00,
2013-05-04 12:12:00,64.8,41.2,30.04,South,169,3.0,5.0,42,0.00,,,0.00,Wunderground v.1.13,2013-05-04 16:12:00,
2013-05-04 12:17:00,65.0,41.3,30.04,SE,135,5.0,8.0,42,0.00,,,0.00,Wunderground v.1.13,2013-05-04 16:17:00,
2013-05-04 12:23:00,65.3,42.8,30.04,South,176,2.0,13.0,44,0.00,,,0.00,Wunderground v.1.13,2013-05-04 16:23:00,
2013-05-04 12:28:00,66.0,42.9,30.03,ESE,113,3.0,5.0,43,0.00,,,0.00,Wunderground v.1.13,2013-05-04 16:28:00,
2013-05-04 12:33:00,65.8,42.1,30.03,ESE,111,5.0,15.0,42,0.00,,,0.00,Wunderground v.1.13,2013-05-04 16:33:00,
2013-05-04 12:38:00,66.3,41.2,30.03,ESE,117,2.0,7.0,40,0.00,,,0.00,Wunderground v.1.13,2013-05-04 16:38:00,
2013-05-04 12:43:00,67.3,45.2,30.02,South,188,1.0,7.0,45,0.00,,,0.00,Wunderground v.1.13,2013-05-04 16:43:00,
2013-05-04 12:48:00,67.9,44.6,30.02,SSW,198,3.0,6.0,43,0.00,,,0.00,Wunderground v.1.13,2013-05-04 16:48:00,
2013-05-04 12:53:00,67.6,42.4,30.02,SE,132,10.0,12.0,40,0.00,,,0.00,Wunderground v.1.13,2013-05-04 16:53:00,
2013-05-04 12:58:00,67.1,43.2,30.01,ESE,115,1.0,9.0,42,0.00,,,0.00,Wunderground v.1.13,2013-05-04 16:58:00,
2013-05-04 13:03:00,67.6,42.4,30.01,SE,126,7.0,13.0,40,0.00,,,0.00,Wunderground v.1.13,2013-05-04 17:03:00,
2013-05-04 13:08:00,67.1,45.6,30.01,ESE,111,5.0,10.0,46,0.00,,,0.00,Wunderground v.1.13,2013-05-04 17:08:00,
2013-05-04 13:13:00,67.1,43.8,30.01,SSE,156,9.0,12.0,43,0.00,,,0.00,Wunderground v.1.13,2013-05-04 17:13:00,
2013-05-04 13:18:00,67.3,43.4,30.01,ESE,121,12.0,15.0,42,0.00,,,0.00,Wunderground v.1.13,2013-05-04 17:18:00,
2013-05-04 13:23:00,67.6,44.3,30.01,East,95,6.0,9.0,43,0.00,,,0.00,Wunderground v.1.13,2013-05-04 17:23:00,
2013-05-04 13:28:00,67.3,44.0,30.00,ESE,123,12.0,16.0,43,0.00,,,0.00,Wunderground v.1.13,2013-05-04 17:28:00,
2013-05-04 13:33:00,67.4,44.1,30.00,ESE,115,6.0,9.0,43,0.00,,,0.00,Wunderground v.1.13,2013-05-04 17:33:00,
2013-05-04 13:38:00,68.1,44.7,30.00,ESE,111,1.0,9.0,43,0.00,,,0.00,Wunderground v.1.13,2013-05-04 17:38:00,
2013-05-04 13:43:00,67.9,45.2,30.00,ESE,105,11.0,20.0,44,0.00,,,0.00,Wunderground v.1.13,2013-05-04 17:43:00,
2013-05-04 13:48:00,67.9,45.2,30.00,ESE,123,11.0,22.0,44,0.00,,,0.00,Wunderground v.1.13,2013-05-04 17:48:00,
2013-05-04 13:53:00,67.9,43.3,30.00,ESE,115,5.0,19.0,41,0.00,,,0.00,Wunderground v.1.13,2013-05-04 17:53:00,
2013-05-04 13:58:00,68.6,43.9,30.00,ESE,116,5.0,11.0,41,0.00,,,0.00,Wunderground v.1.13,2013-05-04 17:58:00,
2013-05-04 14:03:00,68.3,44.9,30.00,SE,130,12.0,12.0,43,0.00,,,0.00,Wunderground v.1.13,2013-05-04 18:03:00,
2013-05-04 14:08:00,67.8,44.5,30.00,ESE,117,11.0,15.0,43,0.00,,,0.00,Wunderground v.1.13,2013-05-04 18:08:00,
2013-05-04 14:13:00,67.1,46.7,29.99,ESE,115,13.0,15.0,48,0.00,,,0.00,Wunderground v.1.13,2013-05-04 18:13:00,
2013-05-04 14:18:00,66.8,47.6,29.99,ESE,107,10.0,15.0,50,0.00,,,0.00,Wunderground v.1.13,2013-05-04 18:18:00,
2013-05-04 14:23:00,66.9,45.4,29.99,East,86,11.0,17.0,46,0.00,,,0.00,Wunderground v.1.13,2013-05-04 18:23:00,
2013-05-04 14:28:00,66.4,44.4,29.99,ESE,121,13.0,18.0,45,0.00,,,0.00,Wunderground v.1.13,2013-05-04 18:28:00,
2013-05-04 14:33:00,66.4,45.0,29.99,SE,130,10.0,16.0,46,0.00,,,0.00,Wunderground v.1.13,2013-05-04 18:33:00,
2013-05-04 14:38:00,67.1,46.2,29.99,ESE,115,15.0,15.0,47,0.00,,,0.00,Wunderground v.1.13,2013-05-04 18:38:00,
2013-05-04 14:43:00,66.9,45.4,29.99,ESE,111,16.0,16.0,46,0.00,,,0.00,Wunderground v.1.13,2013-05-04 18:43:00,
2013-05-04 14:48:00,66.9,44.9,29.99,SE,134,5.0,17.0,45,0.00,,,0.00,Wunderground v.1.13,2013-05-04 18:48:00,
2013-05-04 14:53:00,67.4,46.5,29.99,East,92,11.0,15.0,47,0.00,,,0.00,Wunderground v.1.13,2013-05-04 18:53:00,
2013-05-04 14:58:00,67.4,44.7,29.99,ENE,63,5.0,14.0,44,0.00,,,0.00,Wunderground v.1.13,2013-05-04 18:58:00,
2013-05-04 15:03:00,68.1,45.9,29.99,ESE,112,12.0,16.0,45,0.00,,,0.00,Wunderground v.1.13,2013-05-04 19:03:00,
2013-05-04 15:09:00,67.9,44.0,29.99,ESE,112,15.0,17.0,42,0.00,,,0.00,Wunderground v.1.13,2013-05-04 19:09:00,
2013-05-04 15:14:00,68.1,44.7,29.98,ESE,117,11.0,15.0,43,0.00,,,0.00,Wunderground v.1.13,2013-05-04 19:14:00,
2013-05-04 15:19:00,67.9,46.3,29.98,ESE,118,14.0,17.0,46,0.00,,,0.00,Wunderground v.1.13,2013-05-04 19:19:00,
2013-05-04 15:24:00,67.9,45.8,29.98,SE,128,7.0,15.0,45,0.00,,,0.00,Wunderground v.1.13,2013-05-04 19:24:00,
2013-05-04 15:29:00,68.3,47.8,29.98,ESE,115,9.0,14.0,48,0.00,,,0.00,Wunderground v.1.13,2013-05-04 19:29:00,
2013-05-04 15:34:00,68.6,44.6,29.98,ESE,119,8.0,10.0,42,0.00,,,0.00,Wunderground v.1.13,2013-05-04 19:34:00,
2013-05-04 15:39:00,68.8,44.8,29.98,SE,144,9.0,17.0,42,0.00,,,0.00,Wunderground v.1.13,2013-05-04 19:39:00,
2013-05-04 15:44:00,68.6,45.2,29.98,ESE,103,2.0,13.0,43,0.00,,,0.00,Wunderground v.1.13,2013-05-04 19:44:00,
2013-05-04 15:49:00,68.4,43.8,29.98,ESE,112,7.0,20.0,41,0.00,,,0.00,Wunderground v.1.13,2013-05-04 19:49:00,
2013-05-04 15:54:00,68.6,45.2,29.98,SE,129,5.0,10.0,43,0.00,,,0.00,Wunderground v.1.13,2013-05-04 19:54:00,
2013-05-04 15:59:00,68.6,42.6,29.98,East,92,6.0,15.0,39,0.00,,,0.00,Wunderground v.1.13,2013-05-04 19:59:00,
2013-05-04 16:04:00,68.1,43.5,29.98,ESE,113,15.0,17.0,41,0.00,,,0.00,Wunderground v.1.13,2013-05-04 20:04:00,
2013-05-04 16:09:00,67.9,44.0,29.98,ESE,118,3.0,14.0,42,0.00,,,0.00,Wunderground v.1.13,2013-05-04 20:09:00,
2013-05-04 16:14:00,68.4,45.0,29.97,ESE,116,1.0,11.0,43,0.00,,,0.00,Wunderground v.1.13,2013-05-04 20:14:00,
2013-05-04 16:19:00,69.1,45.7,29.97,SE,126,8.0,8.0,43,0.00,,,0.00,Wunderground v.1.13,2013-05-04 20:19:00,
2013-05-04 16:24:00,69.4,44.7,29.97,East,94,9.0,16.0,41,0.00,,,0.00,Wunderground v.1.13,2013-05-04 20:24:00,
2013-05-04 16:29:00,69.1,44.4,29.97,ESE,122,5.0,17.0,41,0.00,,,0.00,Wunderground v.1.13,2013-05-04 20:29:00,
2013-05-04 16:34:00,69.4,44.0,29.97,SE,126,6.0,7.0,40,0.00,,,0.00,Wunderground v.1.13,2013-05-04 20:34:00,
2013-05-04 16:39:00,69.4,45.3,29.97,SSE,148,7.0,7.0,42,0.00,,,0.00,Wunderground v.1.13,2013-05-04 20:39:00,
2013-05-04 16:44:00,69.6,46.7,29.97,SE,132,2.0,8.0,44,0.00,,,0.00,Wunderground v.1.13,2013-05-04 20:44:00,
2013-05-04 16:49:00,69.6,45.5,29.97,SE,138,2.0,9.0,42,0.00,,,0.00,Wunderground v.1.13,2013-05-04 20:49:00,
2013-05-04 16:54:00,69.6,44.8,29.97,ESE,120,4.0,16.0,41,0.00,,,0.00,Wunderground v.1.13,2013-05-04 20:54:00,
2013-05-04 16:59:00,69.4,45.3,29.97,ESE,115,5.0,10.0,42,0.00,,,0.00,Wunderground v.1.13,2013-05-04 20:59:00,
2013-05-04 17:04:00,69.8,46.3,29.97,SSE,154,4.0,12.0,43,0.00,,,0.00,Wunderground v.1.13,2013-05-04 21:04:00,
2013-05-04 17:09:00,70.1,45.3,29.97,SE,129,6.0,13.0,41,0.00,,,0.00,Wunderground v.1.13,2013-05-04 21:09:00,
2013-05-04 17:14:00,69.9,44.5,29.97,ESE,106,5.0,9.0,40,0.00,,,0.00,Wunderground v.1.13,2013-05-04 21:14:00,
2013-05-04 17:19:00,69.9,45.1,29.97,ESE,115,9.0,18.0,41,0.00,,,0.00,Wunderground v.1.13,2013-05-04 21:19:00,
2013-05-04 17:24:00,69.3,44.6,29.97,ESE,121,10.0,17.0,41,0.00,,,0.00,Wunderground v.1.13,2013-05-04 21:24:00,
2013-05-04 17:29:00,68.9,44.9,29.97,East,98,9.0,15.0,42,0.00,,,0.00,Wunderground v.1.13,2013-05-04 21:29:00,
2013-05-04 17:34:00,68.9,45.5,29.97,ESE,113,15.0,17.0,43,0.00,,,0.00,Wunderground v.1.13,2013-05-04 21:34:00,
2013-05-04 17:39:00,68.8,46.0,29.97,ESE,111,11.0,18.0,44,0.00,,,0.00,Wunderground v.1.13,2013-05-04 21:39:00,
2013-05-04 17:44:00,68.8,46.0,29.97,ESE,111,10.0,14.0,44,0.00,,,0.00,Wunderground v.1.13,2013-05-04 21:44:00,
2013-05-04 17:49:00,68.9,44.9,29.97,ESE,105,10.0,11.0,42,0.00,,,0.00,Wunderground v.1.13,2013-05-04 21:49:00,
2013-05-04 17:54:00,69.3,45.2,29.97,ESE,110,5.0,11.0,42,0.00,,,0.00,Wunderground v.1.13,2013-05-04 21:54:00,
2013-05-04 18:00:00,69.3,45.2,29.97,SE,127,14.0,14.0,42,0.00,,,0.00,Wunderground v.1.13,2013-05-04 22:00:00,
2013-05-04 18:05:00,69.1,46.3,29.97,ESE,104,12.0,12.0,44,0.00,,,0.00,Wunderground v.1.13,2013-05-04 22:05:00,
2013-05-04 18:10:00,69.1,44.4,29.97,ESE,106,4.0,9.0,41,0.00,,,0.00,Wunderground v.1.13,2013-05-04 22:10:00,
2013-05-04 18:15:00,69.3,45.2,29.97,ESE,103,10.0,11.0,42,0.00,,,0.00,Wunderground v.1.13,2013-05-04 22:15:00,
2013-05-04 18:20:00,69.4,45.9,29.97,NE,45,4.0,6.0,43,0.00,,,0.00,Wunderground v.1.13,2013-05-04 22:20:00,
2013-05-04 18:25:00,69.4,46.5,29.97,ESE,123,7.0,10.0,44,0.00,,,0.00,Wunderground v.1.13,2013-05-04 22:25:00,
2013-05-04 18:30:00,69.4,45.9,29.97,SE,132,5.0,7.0,43,0.00,,,0.00,Wunderground v.1.13,2013-05-04 22:30:00,
2013-05-04 18:42:00,68.8,44.8,29.97,ESE,119,7.0,9.0,42,0.00,,,0.00,Wunderground v.1.13,2013-05-04 22:42:00,
2013-05-04 18:47:00,68.8,44.8,29.97,SE,138,3.0,9.0,42,0.00,,,0.00,Wunderground v.1.13,2013-05-04 22:47:00,
2013-05-04 18:52:00,68.8,44.1,29.97,ESE,109,6.0,7.0,41,0.00,,,0.00,Wunderground v.1.13,2013-05-04 22:52:00,
2013-05-04 18:57:00,68.6,45.2,29.97,ESE,113,9.0,12.0,43,0.00,,,0.00,Wunderground v.1.13,2013-05-04 22:57:00,
2013-05-04 19:02:00,68.6,45.2,29.97,ESE,106,13.0,13.0,43,0.00,,,0.00,Wunderground v.1.13,2013-05-04 23:02:00,
2013-05-04 19:07:00,68.4,45.0,29.97,ESE,119,11.0,12.0,43,0.00,,,0.00,Wunderground v.1.13,2013-05-04 23:07:00,
2013-05-04 19:12:00,68.3,44.9,29.98,ESE,107,9.0,13.0,43,0.00,,,0.00,Wunderground v.1.13,2013-05-04 23:12:00,
2013-05-04 19:17:00,68.1,44.1,29.98,ESE,116,5.0,10.0,42,0.00,,,0.00,Wunderground v.1.13,2013-05-04 23:17:00,
2013-05-04 19:22:00,68.1,44.7,29.98,ESE,110,2.0,7.0,43,0.00,,,0.00,Wunderground v.1.13,2013-05-04 23:22:00,
2013-05-04 19:27:00,67.9,44.6,29.98,SE,128,2.0,4.0,43,0.00,,,0.00,Wunderground v.1.13,2013-05-04 23:27:00,
2013-05-04 19:32:00,67.9,45.8,29.98,ESE,108,1.0,3.0,45,0.00,,,0.00,Wunderground v.1.13,2013-05-04 23:32:00,
2013-05-04 19:37:00,67.9,44.6,29.98,ESE,113,0.0,3.0,43,0.00,,,0.00,Wunderground v.1.13,2013-05-04 23:37:00,
2013-05-04 19:42:00,67.8,44.5,29.98,ESE,117,3.0,4.0,43,0.00,,,0.00,Wunderground v.1.13,2013-05-04 23:42:00,
2013-05-04 19:47:00,67.4,44.1,29.98,ESE,107,2.0,3.0,43,0.00,,,0.00,Wunderground v.1.13,2013-05-04 23:47:00,
2013-05-04 19:52:00,67.1,45.0,29.98,ESE,116,2.0,2.0,45,0.00,,,0.00,Wunderground v.1.13,2013-05-04 23:52:00,
2013-05-04 19:57:00,66.9,44.3,29.98,ESE,116,1.0,2.0,44,0.00,,,0.00,Wunderground v.1.13,2013-05-04 23:57:00,
2013-05-04 20:02:00,66.9,44.3,29.98,ESE,116,2.0,2.0,44,0.00,,,0.00,Wunderground v.1.13,2013-05-05 00:02:00,
2013-05-04 20:07:00,66.8,44.2,29.98,ESE,114,2.0,4.0,44,0.00,,,0.00,Wunderground v.1.13,2013-05-05 00:07:00,
2013-05-04 20:12:00,66.6,45.7,29.99,ESE,114,1.0,4.0,47,0.00,,,0.00,Wunderground v.1.13,2013-05-05 00:12:00,
2013-05-04 20:17:00,66.4,48.2,29.99,ESE,111,4.0,7.0,52,0.00,,,0.00,Wunderground v.1.13,2013-05-05 00:17:00,
2013-05-04 20:22:00,66.6,45.2,29.99,ESE,118,1.0,8.0,46,0.00,,,0.00,Wunderground v.1.13,2013-05-05 00:22:00,
2013-05-04 20:29:00,66.4,43.2,29.99,ESE,113,7.0,7.0,43,0.00,,,0.00,Wunderground v.1.13,2013-05-05 00:29:00,
2013-05-04 20:33:00,66.4,42.6,29.99,ESE,117,6.0,11.0,42,0.00,,,0.00,Wunderground v.1.13,2013-05-05 00:33:00,
2013-05-04 20:38:00,66.3,43.7,29.99,ESE,109,4.0,7.0,44,0.00,,,0.00,Wunderground v.1.13,2013-05-05 00:38:00,
2013-05-04 20:43:00,65.6,43.1,29.99,ESE,113,6.0,6.0,44,0.00,,,0.00,Wunderground v.1.13,2013-05-05 00:43:00,
2013-05-04 20:48:00,65.3,43.4,29.99,ESE,107,3.0,4.0,45,0.00,,,0.00,Wunderground v.1.13,2013-05-05 00:48:00,
2013-05-04 20:53:00,65.0,43.7,29.99,ESE,111,3.0,5.0,46,0.00,,,0.00,Wunderground v.1.13,2013-05-05 00:53:00,
2013-05-04 20:59:00,64.7,42.9,29.99,ESE,108,4.0,4.0,45,0.00,,,0.00,Wunderground v.1.13,2013-05-05 00:59:00,
2013-05-04 21:04:00,64.7,41.7,29.99,ESE,109,2.0,5.0,43,0.00,,,0.00,Wunderground v.1.13,2013-05-05 01:04:00,
2013-05-04 21:09:00,64.3,43.1,29.99,ESE,107,4.0,4.0,46,0.00,,,0.00,Wunderground v.1.13,2013-05-05 01:09:00,
2013-05-04 21:14:00,64.2,41.8,29.99,ESE,113,2.0,5.0,44,0.00,,,0.00,Wunderground v.1.13,2013-05-05 01:14:00,
2013-05-04 21:19:00,64.0,42.2,29.99,ESE,113,2.0,4.0,45,0.00,,,0.00,Wunderground v.1.13,2013-05-05 01:19:00,
2013-05-04 21:24:00,63.9,42.1,29.99,ESE,111,2.0,3.0,45,0.00,,,0.00,Wunderground v.1.13,2013-05-05 01:24:00,
2013-05-04 21:29:00,63.7,41.9,30.00,ESE,111,2.0,3.0,45,0.00,,,0.00,Wunderground v.1.13,2013-05-05 01:29:00,
2013-05-04 21:34:00,63.4,41.7,30.00,ESE,111,1.0,4.0,45,0.00,,,0.00,Wunderground v.1.13,2013-05-05 01:34:00,
2013-05-04 21:39:00,63.2,41.5,30.00,ESE,109,3.0,5.0,45,0.00,,,0.00,Wunderground v.1.13,2013-05-05 01:39:00,
2013-05-04 21:44:00,63.4,41.7,30.00,SE,138,3.0,5.0,45,0.00,,,0.00,Wunderground v.1.13,2013-05-05 01:44:00,
2013-05-04 21:49:00,63.2,41.5,30.00,ESE,117,4.0,5.0,45,0.00,,,0.00,Wunderground v.1.13,2013-05-05 01:49:00,
2013-05-04 21:54:00,63.1,40.8,30.00,ESE,113,3.0,3.0,44,0.00,,,0.00,Wunderground v.1.13,2013-05-05 01:54:00,
2013-05-04 21:59:00,63.1,41.4,30.01,East,101,3.0,3.0,45,0.00,,,0.00,Wunderground v.1.13,2013-05-05 01:59:00,
2013-05-04 22:04:00,62.9,40.6,30.01,ESE,121,1.0,4.0,44,0.00,,,0.00,Wunderground v.1.13,2013-05-05 02:04:00,
2013-05-04 22:09:00,62.6,40.9,30.01,ESE,121,0.0,2.0,45,0.00,,,0.00,Wunderground v.1.13,2013-05-05 02:09:00,
2013-05-04 22:14:00,62.4,41.3,30.01,ESE,121,0.0,3.0,46,0.00,,,0.00,Wunderground v.1.13,2013-05-05 02:14:00,
2013-05-04 22:19:00,62.1,41.1,30.01,ESE,121,0.0,3.0,46,0.00,,,0.00,Wunderground v.1.13,2013-05-05 02:19:00,
2013-05-04 22:24:00,62.0,41.0,30.01,ESE,121,0.0,3.0,46,0.00,,,0.00,Wunderground v.1.13,2013-05-05 02:24:00,
2013-05-04 22:29:00,62.1,39.9,30.01,ESE,111,2.0,5.0,44,0.00,,,0.00,Wunderground v.1.13,2013-05-05 02:29:00,
2013-05-04 22:34:00,62.4,39.6,30.01,ESE,113,4.0,7.0,43,0.00,,,0.00,Wunderground v.1.13,2013-05-05 02:34:00,
2013-05-04 22:39:00,62.6,39.2,30.01,ESE,121,4.0,10.0,42,0.00,,,0.00,Wunderground v.1.13,2013-05-05 02:39:00,
2013-05-04 22:44:00,62.7,41.0,30.01,ESE,113,2.0,5.0,45,0.00,,,0.00,Wunderground v.1.13,2013-05-05 02:44:00,
2013-05-04 22:49:00,62.6,40.4,30.01,ESE,113,4.0,6.0,44,0.00,,,0.00,Wunderground v.1.13,2013-05-05 02:49:00,
2013-05-04 22:54:00,62.6,40.9,30.01,ESE,117,0.0,6.0,45,0.00,,,0.00,Wunderground v.1.13,2013-05-05 02:54:00,
2013-05-04 22:59:00,62.4,40.8,30.01,ESE,119,3.0,5.0,45,0.00,,,0.00,Wunderground v.1.13,2013-05-05 02:59:00,
2013-05-04 23:04:00,62.4,40.8,30.01,SE,126,3.0,5.0,45,0.00,,,0.00,Wunderground v.1.13,2013-05-05 03:04:00,
2013-05-04 23:09:00,62.3,41.2,30.01,ESE,118,6.0,6.0,46,0.00,,,0.00,Wunderground v.1.13,2013-05-05 03:09:00,
2013-05-04 23:14:00,62.3,40.7,30.01,ESE,114,1.0,7.0,45,0.00,,,0.00,Wunderground v.1.13,2013-05-05 03:14:00,
2013-05-04 23:19:00,62.3,41.8,30.01,SE,125,6.0,8.0,47,0.00,,,0.00,Wunderground v.1.13,2013-05-05 03:19:00,
2013-05-04 23:24:00,62.3,41.8,30.01,ESE,113,3.0,7.0,47,0.00,,,0.00,Wunderground v.1.13,2013-05-05 03:24:00,
2013-05-04 23:29:00,61.8,41.9,30.01,ESE,111,4.0,5.0,48,0.00,,,0.00,Wunderground v.1.13,2013-05-05 03:29:00,
2013-05-04 23:34:00,61.3,42.0,30.01,ESE,107,3.0,5.0,49,0.00,,,0.00,Wunderground v.1.13,2013-05-05 03:34:00,
2013-05-04 23:39:00,61.0,42.2,30.01,ESE,117,2.0,5.0,50,0.00,,,0.00,Wunderground v.1.13,2013-05-05 03:39:00,
2013-05-04 23:44:00,60.9,43.1,30.00,ESE,111,4.0,5.0,52,0.00,,,0.00,Wunderground v.1.13,2013-05-05 03:44:00,
2013-05-04 23:50:00,61.0,41.7,30.00,ESE,113,0.0,2.0,49,0.00,,,0.00,Wunderground v.1.13,2013-05-05 03:50:00,
2013-05-04 23:55:00,61.0,42.2,30.00,ESE,113,5.0,5.0,50,0.00,,,0.00,Wunderground v.1.13,2013-05-05 03:55:00,